Voltar ao catálogo

STARLINK-6053

AtivoComunicaçõesVLEO
NORAD 56466·PAYLOAD·🇺🇸 United States

Lançado May 10, 2023 de Vandenberg Space Force Base

Loading…

Próximas Passagens (próximas 24 horas)

TLE

AtualizadoSource: CelesTrak SupGP

Época: Sep 15, 2026, 02:39 UTC

1 56466C 23064U   26258.11090278  .00007770  00000+0  65127-3 0  2585
2 56466  70.0032  26.7233 0003112 269.4710  60.4043 14.98320682    11

Acompanhe STARLINK-6053 em tempo real com AllMySat

Download on the App Store